EW8311 Weather Reports


Display with metric or nautical units.
time (UTC)temp
F
wind
direction
speed
MPH
gust
MPH
rain 1hr
in
rain 24hr
in
rain mn
in
humidity
%
barometer
mb
20260506160010 64 295 1.0 4.0 0.00 0.00 0.00 50 1011.2
20260506154504 63 280 1.0 5.0 0.00 0.00 0.00 52 1011.1
20260506153105 62 127 1.0 4.0 0.00 0.00 0.00 52 1011.1
20260506151558 61 262 0.0 2.0 0.00 0.00 0.00 54 1011.2
20260506150058 60 339 0.0 2.0 0.00 0.00 0.00 55 1011.1
20260506144554 59 346 1.0 3.0 0.00 0.00 0.00 57 1011.1
20260506143051 58 328 0.0 1.0 0.00 0.00 0.00 59 1011.2
20260506141549 58 260 0.0 1.0 0.00 0.00 0.00 61 1011.1
20260506140049 57 263 0.0 0.0 0.00 0.00 0.00 63 1011.1
20260506134611 56 115 0.0 0.0 0.00 0.00 0.00 66 1010.9
20260506133044 52 115 0.0 0.0 0.00 0.00 0.00 76 1011.0
20260506131601 50 115 0.0 0.0 0.00 0.00 0.00 79 1010.8
20260506130043 49 115 0.0 0.0 0.00 0.00 0.00 80 1010.8
20260506124539 49 115 0.0 0.0 0.00 0.02 0.00 80 1010.6
20260506123043 49 115 0.0 0.0 0.00 0.02 0.00 79 1010.5
20260506121537 50 115 0.0 0.0 0.00 0.02 0.00 79 1010.3
20260506120032 51 115 0.0 0.0 0.00 0.02 0.00 75 1010.2
20260506114534 52 115 0.0 0.0 0.00 0.03 0.00 73 1010.0
20260506113032 53 115 0.0 0.0 0.00 0.03 0.00 69 1010.0
20260506111524 53 115 0.0 0.0 0.00 0.03 0.00 69 1009.9
20260506110022 52 115 0.0 0.0 0.00 0.03 0.00 70 1009.8
20260506104519 53 115 0.0 0.0 0.00 0.05 0.00 69 1009.8
20260506103022 55 115 0.0 1.0 0.00 0.05 0.00 65 1009.7
20260506101513 55 116 0.0 2.0 0.00 0.05 0.00 64 1009.5
20260506100016 55 120 0.0 1.0 0.00 0.05 0.00 64 1009.3
20260506094515 55 120 0.0 2.0 0.00 0.10 0.00 61 1009.2
20260506093007 55 103 0.0 1.0 0.00 0.10 0.00 59 1009.2
20260506091506 56 103 0.0 0.0 0.00 0.10 0.00 58 1009.0
20260506090005 56 103 0.0 2.0 0.00 0.10 0.00 58 1009.1
20260506084502 57 102 1.0 2.0 0.00 0.15 0.00 57 1009.1
20260506083124 57 117 0.0 2.0 0.00 0.15 0.00 57 1009.1
20260506081604 57 101 0.0 2.0 0.00 0.15 0.00 58 1009.2
20260506080104 57 116 0.0 0.0 0.00 0.15 0.00 58 1009.3
20260506073053 57 91 0.0 1.0 0.00 0.21 0.00 54 1009.2
20260506071554 58 105 0.0 2.0 0.00 0.21 0.00 52 1009.2
20260506061546 60 316 2.0 5.0 0.00 0.27 0.21 49 1008.7
20260506044542 63 333 4.0 9.0 0.00 0.32 0.21 50 1008.1
20260506043042 64 317 5.0 13.0 0.00 0.32 0.21 48 1008.0
20260506041540 64 304 6.0 12.0 0.00 0.32 0.21 46 1007.9
20260506040041 64 280 5.0 10.0 0.00 0.32 0.21 43 1007.7
20260506034541 64 290 3.0 6.0 0.00 0.35 0.21 42 1007.5
20260506033039 65 307 3.0 7.0 0.00 0.35 0.21 41 1007.3
20260506031540 65 315 2.0 6.0 0.00 0.35 0.21 40 1007.1
20260506030038 65 311 3.0 8.0 0.00 0.35 0.21 38 1006.9
20260506024542 66 315 4.0 10.0 0.00 0.42 0.21 36 1006.7
20260506023036 66 321 5.0 9.0 0.00 0.42 0.21 35 1006.5
20260506021535 67 293 4.0 9.0 0.00 0.42 0.21 34 1006.1
20260506020034 67 322 6.0 14.0 0.00 0.42 0.21 35 1005.9
20260506014535 69 332 8.0 16.0 0.00 0.47 0.21 34 1005.7
20260506013034 70 261 8.0 18.0 0.00 0.47 0.21 33 1005.5
20260506011559 71 308 10.0 17.0 0.00 0.47 0.21 31 1005.4
20260506010032 73 269 5.0 11.0 0.00 0.47 0.21 29 1005.2
20260506004537 72 322 5.0 12.0 0.00 0.50 0.21 29 1005.0
20260506003031 72 281 5.0 11.0 0.00 0.50 0.21 28 1005.1
20260506001529 74 257 3.0 11.0 0.00 0.50 0.21 31 1004.9
20260506000045 72 274 4.0 9.0 0.00 0.50 0.21 31 1004.9
20260505234539 72 298 3.0 14.0 0.00 0.53 0.21 31 1004.8
20260505233028 73 311 3.0 9.0 0.00 0.53 0.21 31 1004.8
20260505231533 74 323 4.0 11.0 0.00 0.53 0.21 29 1004.8
20260505230051 73 264 3.0 11.0 0.00 0.53 0.21 30 1004.7
20260505224538 72 103 3.0 9.0 0.00 0.53 0.21 29 1005.0
20260505223028 73 310 4.0 12.0 0.00 0.53 0.21 32 1005.1
20260505221528 74 302 5.0 10.0 0.00 0.53 0.21 33 1005.2
20260505220027 73 300 10.0 18.0 0.00 0.53 0.21 31 1005.2
20260505214527 74 298 10.0 15.0 0.00 0.53 0.21 32 1005.4
20260505213025 72 307 9.0 20.0 0.00 0.53 0.21 35 1005.4
20260505211527 72 249 6.0 14.0 0.00 0.53 0.21 37 1005.7
20260505210018 73 325 9.0 18.0 0.00 0.53 0.21 37 1005.7
20260505204515 71 316 6.0 17.0 0.00 0.53 0.21 40 1005.6
20260505203014 71 315 7.0 12.0 0.00 0.53 0.21 42 1005.8
20260505201511 68 316 3.0 8.0 0.00 0.53 0.21 52 1006.0
20260505200011 69 295 2.0 10.0 0.00 0.53 0.21 52 1006.1
20260505194509 70 299 6.0 10.0 0.00 0.53 0.21 50 1005.9
20260505193007 70 259 2.0 8.0 0.00 0.53 0.21 54 1006.2
20260505191505 68 314 4.0 8.0 0.00 0.53 0.21 55 1006.4
20260505190004 68 328 4.0 7.0 0.00 0.53 0.21 57 1006.6
20260505184505 69 340 2.0 5.0 0.00 0.53 0.21 59 1006.8
20260505183100 67 324 3.0 7.0 0.00 0.53 0.21 59 1006.8
20260505181559 67 262 1.0 4.0 0.00 0.53 0.21 58 1007.0
20260505180100 67 311 0.0 4.0 0.00 0.53 0.21 59 1007.2
20260505174555 65 316 2.0 9.0 0.00 0.53 0.21 61 1007.2
20260505173111 66 118 0.0 3.0 0.00 0.53 0.21 62 1007.2
20260505171605 64 246 0.0 3.0 0.00 0.53 0.21 65 1007.3
20260505170045 63 326 2.0 4.0 0.00 0.53 0.21 68 1007.1
20260505164543 63 271 1.0 4.0 0.00 0.53 0.21 73 1007.1
20260505163039 62 300 1.0 2.0 0.00 0.53 0.21 77 1007.3
20260505161539 61 326 2.0 4.0 0.00 0.53 0.21 76 1007.3